| time (UTC) | temp C | wind direction | speed KPH | gust KPH | rain 1hr cm | rain 24hr cm | rain mn cm | humidity % | barometer mb |
| 20260504050715 | 6 | 246 | 0.0 | 3.2 | 0.00 | 0.00 | 0.00 | 70 | 1018.7 |
| 20260504050212 | 7 | 239 | 1.6 | 3.2 | 0.00 | 0.00 | 0.00 | 69 | 1018.7 |
| 20260504045709 | 7 | 271 | 0.0 | 1.6 | 0.00 | 0.00 | 0.00 | 68 | 1018.8 |
| 20260504045209 | 7 | 268 | 0.0 | 1.6 | 0.00 | 0.00 | 0.00 | 69 | 1018.7 |
| 20260504044708 | 6 | 296 | 0.0 | 4.8 | 0.00 | 0.00 | 0.00 | 68 | 1018.8 |
| 20260504044204 | 7 | 275 | 0.0 | 3.2 | 0.00 | 0.00 | 0.00 | 67 | 1018.8 |
| 20260504043701 | 7 | 269 | 1.6 | 3.2 | 0.00 | 0.00 | 0.00 | 66 | 1018.9 |
| 20260504043158 | 7 | 235 | 1.6 | 3.2 | 0.00 | 0.00 | 0.00 | 65 | 1018.8 |
| 20260504042655 | 7 | 224 | 0.0 | 1.6 | 0.00 | 0.00 | 0.00 | 66 | 1018.7 |
| 20260504042152 | 7 | 299 | 0.0 | 1.6 | 0.00 | 0.00 | 0.00 | 66 | 1018.6 |
| 20260504041648 | 7 | 227 | 0.0 | 3.2 | 0.00 | 0.00 | 0.00 | 68 | 1018.6 |
| 20260504041144 | 7 | 244 | 1.6 | 3.2 | 0.00 | 0.00 | 0.00 | 66 | 1018.7 |
| 20260504040641 | 7 | 246 | 0.0 | 1.6 | 0.00 | 0.00 | 0.00 | 68 | 1018.8 |
| 20260504040138 | 7 | 225 | 1.6 | 3.2 | 0.00 | 0.00 | 0.00 | 65 | 1018.7 |
| 20260504035635 | 7 | 199 | 0.0 | 1.6 | 0.00 | 0.00 | 0.00 | 65 | 1018.7 |
| 20260504035131 | 7 | 305 | 3.2 | 3.2 | 0.00 | 0.00 | 0.00 | 65 | 1018.8 |
| 20260504034629 | 7 | 264 | 0.0 | 3.2 | 0.00 | 0.00 | 0.00 | 65 | 1018.9 |
| 20260504034126 | 7 | 171 | 1.6 | 1.6 | 0.00 | 0.00 | 0.00 | 64 | 1018.8 |
| 20260504033624 | 7 | 228 | 0.0 | 1.6 | 0.00 | 0.00 | 0.00 | 63 | 1018.7 |
| 20260504033121 | 7 | 259 | 0.0 | 3.2 | 0.00 | 0.00 | 0.00 | 64 | 1018.7 |
| 20260504032618 | 7 | 119 | 0.0 | 1.6 | 0.00 | 0.00 | 0.00 | 65 | 1018.6 |
| 20260504032115 | 7 | 254 | 1.6 | 3.2 | 0.00 | 0.00 | 0.00 | 62 | 1018.5 |
| 20260504031612 | 7 | 184 | 1.6 | 3.2 | 0.00 | 0.00 | 0.00 | 64 | 1018.6 |
| 20260504031108 | 7 | 209 | 1.6 | 4.8 | 0.00 | 0.00 | 0.00 | 65 | 1019.0 |
| 20260504030605 | 7 | 220 | 1.6 | 3.2 | 0.00 | 0.00 | 0.00 | 66 | 1018.9 |
| 20260504025558 | 7 | 259 | 1.6 | 3.2 | 0.00 | 0.00 | 0.00 | 64 | 1018.8 |
| 20260504025055 | 7 | 284 | 1.6 | 3.2 | 0.00 | 0.00 | 0.00 | 63 | 1018.8 |
| 20260504024552 | 7 | 170 | 1.6 | 3.2 | 0.00 | 0.00 | 0.00 | 60 | 1018.9 |
| 20260504024049 | 7 | 190 | 1.6 | 4.8 | 0.00 | 0.00 | 0.00 | 61 | 1018.9 |
| 20260504023546 | 7 | 153 | 0.0 | 3.2 | 0.00 | 0.00 | 0.00 | 62 | 1019.1 |
| 20260504023042 | 7 | 225 | 3.2 | 3.2 | 0.00 | 0.00 | 0.00 | 62 | 1019.0 |
| 20260504022538 | 7 | 253 | 1.6 | 3.2 | 0.00 | 0.00 | 0.00 | 60 | 1018.9 |
| 20260504022034 | 7 | 210 | 3.2 | 4.8 | 0.00 | 0.00 | 0.00 | 62 | 1018.8 |
| 20260504021532 | 7 | 284 | 8.0 | 8.0 | 0.00 | 0.00 | 0.00 | 63 | 1018.9 |
| 20260504021028 | 7 | 127 | 0.0 | 4.8 | 0.00 | 0.00 | 0.00 | 62 | 1018.8 |
| 20260504020525 | 7 | 187 | 3.2 | 8.0 | 0.00 | 0.00 | 0.00 | 60 | 1018.8 |
| 20260504020022 | 6 | 272 | 1.6 | 4.8 | 0.00 | 0.00 | 0.00 | 58 | 1018.6 |
| 20260504015518 | 6 | 165 | 3.2 | 3.2 | 0.00 | 0.00 | 0.00 | 64 | 1018.7 |
| 20260504015014 | 6 | 275 | 4.8 | 6.4 | 0.00 | 0.00 | 0.00 | 60 | 1018.6 |
| 20260504014510 | 6 | 216 | 3.2 | 3.2 | 0.00 | 0.00 | 0.00 | 60 | 1018.5 |
| 20260504014008 | 6 | 312 | 3.2 | 3.2 | 0.00 | 0.00 | 0.00 | 63 | 1018.2 |
| 20260504013506 | 6 | 285 | 0.0 | 3.2 | 0.00 | 0.00 | 0.00 | 64 | 1018.3 |
| 20260504013001 | 6 | 229 | 1.6 | 1.6 | 0.00 | 0.00 | 0.00 | 61 | 1018.4 |
| 20260504012500 | 6 | 278 | 0.0 | 3.2 | 0.00 | 0.00 | 0.00 | 60 | 1018.2 |
| 20260504011958 | 6 | 242 | 1.6 | 1.6 | 0.00 | 0.00 | 0.00 | 61 | 1018.1 |
| 20260504011454 | 6 | 208 | 0.0 | 3.2 | 0.00 | 0.00 | 0.00 | 59 | 1017.9 |
| 20260504010949 | 6 | 180 | 0.0 | 1.6 | 0.00 | 0.00 | 0.00 | 60 | 1018.0 |
| 20260504010446 | 7 | 231 | 0.0 | 1.6 | 0.00 | 0.00 | 0.00 | 59 | 1018.0 |
| 20260504005942 | 7 | 192 | 1.6 | 3.2 | 0.00 | 0.00 | 0.00 | 58 | 1018.1 |
| 20260504005439 | 7 | 287 | 1.6 | 3.2 | 0.00 | 0.00 | 0.00 | 58 | 1017.9 |
| 20260504004936 | 7 | 271 | 1.6 | 3.2 | 0.00 | 0.00 | 0.00 | 56 | 1017.6 |
| 20260504004434 | 7 | 315 | 0.0 | 1.6 | 0.00 | 0.00 | 0.00 | 55 | 1017.8 |
| 20260504003931 | 8 | 216 | 1.6 | 1.6 | 0.00 | 0.00 | 0.00 | 59 | 1017.7 |
| 20260504003427 | 8 | 269 | 0.0 | 3.2 | 0.00 | 0.00 | 0.00 | 57 | 1017.6 |
| 20260504002924 | 8 | 218 | 0.0 | 1.6 | 0.00 | 0.00 | 0.00 | 54 | 1017.5 |
| 20260504002421 | 9 | 294 | 3.2 | 3.2 | 0.00 | 0.00 | 0.00 | 53 | 1017.5 |
| 20260504001918 | 9 | 214 | 3.2 | 3.2 | 0.00 | 0.00 | 0.00 | 57 | 1017.5 |
| 20260504001416 | 10 | 206 | 1.6 | 1.6 | 0.00 | 0.00 | 0.00 | 53 | 1017.4 |
| 20260504000912 | 10 | 223 | 1.6 | 3.2 | 0.00 | 0.00 | 0.00 | 51 | 1017.5 |
| 20260504000409 | 10 | 296 | 0.0 | 3.2 | 0.00 | 0.00 | 0.00 | 47 | 1017.6 |
| 20260503235907 | 11 | 241 | 1.6 | 3.2 | 0.00 | 0.00 | 0.00 | 45 | 1017.4 |
| 20260503235404 | 11 | 288 | 1.6 | 3.2 | 0.00 | 0.00 | 0.00 | 44 | 1017.5 |
| 20260503234902 | 11 | 95 | 0.0 | 3.2 | 0.00 | 0.00 | 0.00 | 44 | 1017.5 |
| 20260503234359 | 12 | 226 | 3.2 | 3.2 | 0.00 | 0.00 | 0.00 | 42 | 1017.4 |
| 20260503233857 | 12 | 110 | 0.0 | 0.0 | 0.00 | 0.00 | 0.00 | 39 | 1017.4 |
| 20260503233353 | 12 | 304 | 0.0 | 4.8 | 0.00 | 0.00 | 0.00 | 39 | 1017.6 |
| 20260503232849 | 13 | 343 | 0.0 | 3.2 | 0.00 | 0.00 | 0.00 | 37 | 1017.5 |
| 20260503232346 | 14 | 318 | 3.2 | 4.8 | 0.00 | 0.00 | 0.00 | 32 | 1017.5 |
| 20260503231845 | 15 | 345 | 3.2 | 6.4 | 0.00 | 0.00 | 0.00 | 31 | 1017.5 |
| 20260503231341 | 15 | 195 | 3.2 | 4.8 | 0.00 | 0.00 | 0.00 | 30 | 1017.5 |
| 20260503230837 | 15 | 292 | 1.6 | 4.8 | 0.00 | 0.00 | 0.00 | 31 | 1017.3 |
| 20260503230334 | 15 | 351 | 6.4 | 8.0 | 0.00 | 0.00 | 0.00 | 29 | 1017.5 |
| 20260503225832 | 15 | 321 | 3.2 | 6.4 | 0.00 | 0.00 | 0.00 | 32 | 1017.4 |
| 20260503225328 | 15 | 329 | 0.0 | 9.7 | 0.00 | 0.00 | 0.00 | 30 | 1017.5 |
| 20260503224824 | 15 | 339 | 3.2 | 6.4 | 0.00 | 0.00 | 0.00 | 28 | 1017.4 |
| 20260503224322 | 15 | 277 | 3.2 | 4.8 | 0.00 | 0.00 | 0.00 | 29 | 1017.3 |
| 20260503223819 | 15 | 307 | 4.8 | 11.3 | 0.00 | 0.00 | 0.00 | 31 | 1017.3 |
| 20260503223317 | 15 | 324 | 9.7 | 9.7 | 0.00 | 0.00 | 0.00 | 30 | 1017.0 |
| 20260503222812 | 15 | 329 | 6.4 | 8.0 | 0.00 | 0.00 | 0.00 | 30 | 1017.3 |
| 20260503222311 | 15 | 322 | 9.7 | 9.7 | 0.00 | 0.00 | 0.00 | 30 | 1017.2 |
| 20260503221809 | 15 | 326 | 8.0 | 12.9 | 0.00 | 0.00 | 0.00 | 31 | 1017.2 |
| 20260503221307 | 15 | 309 | 8.0 | 11.3 | 0.00 | 0.00 | 0.00 | 30 | 1017.0 |
| 20260503220802 | 15 | 287 | 4.8 | 8.0 | 0.00 | 0.00 | 0.00 | 28 | 1017.2 |
| 20260503220300 | 16 | 234 | 3.2 | 6.4 | 0.00 | 0.00 | 0.00 | 27 | 1017.0 |
| 20260503215756 | 16 | 321 | 4.8 | 6.4 | 0.00 | 0.00 | 0.00 | 31 | 1017.0 |
| 20260503215253 | 15 | 307 | 3.2 | 11.3 | 0.00 | 0.00 | 0.00 | 31 | 1017.3 |
| 20260503214751 | 16 | 319 | 4.8 | 8.0 | 0.00 | 0.00 | 0.00 | 29 | 1017.3 |
| 20260503214248 | 16 | 322 | 6.4 | 12.9 | 0.00 | 0.00 | 0.00 | 28 | 1017.2 |
| 20260503213746 | 16 | 291 | 6.4 | 8.0 | 0.00 | 0.00 | 0.00 | 29 | 1017.4 |
| 20260503213243 | 16 | 225 | 3.2 | 11.3 | 0.00 | 0.00 | 0.00 | 28 | 1017.4 |
| 20260503212740 | 15 | 333 | 4.8 | 14.5 | 0.00 | 0.00 | 0.00 | 28 | 1017.3 |
| 20260503212238 | 15 | 346 | 11.3 | 16.1 | 0.00 | 0.00 | 0.00 | 29 | 1017.2 |
| 20260503211735 | 15 | 174 | 4.8 | 8.0 | 0.00 | 0.00 | 0.00 | 28 | 1017.4 |
| 20260503211231 | 15 | 351 | 11.3 | 12.9 | 0.00 | 0.00 | 0.00 | 28 | 1017.5 |
| 20260503210727 | 15 | 238 | 4.8 | 9.7 | 0.00 | 0.00 | 0.00 | 27 | 1017.7 |
| 20260503210225 | 15 | 353 | 8.0 | 8.0 | 0.00 | 0.00 | 0.00 | 27 | 1017.6 |
| 20260503205720 | 15 | 355 | 9.7 | 14.5 | 0.00 | 0.00 | 0.00 | 28 | 1017.6 |
| 20260503205216 | 15 | 323 | 3.2 | 11.3 | 0.00 | 0.00 | 0.00 | 28 | 1017.5 |
| 20260503204712 | 15 | 300 | 8.0 | 11.3 | 0.00 | 0.00 | 0.00 | 30 | 1017.6 |
| 20260503204210 | 16 | 304 | 6.4 | 12.9 | 0.00 | 0.00 | 0.00 | 28 | 1017.7 |
| 20260503203707 | 16 | 193 | 4.8 | 8.0 | 0.00 | 0.00 | 0.00 | 28 | 1017.6 |
| 20260503203205 | 15 | 315 | 6.4 | 6.4 | 0.00 | 0.00 | 0.00 | 31 | 1017.9 |
| 20260503202702 | 15 | 340 | 3.2 | 11.3 | 0.00 | 0.00 | 0.00 | 30 | 1017.8 |
| 20260503202200 | 16 | 158 | 9.7 | 9.7 | 0.00 | 0.00 | 0.00 | 29 | 1017.8 |
| 20260503201657 | 16 | 106 | 3.2 | 8.0 | 0.00 | 0.00 | 0.00 | 26 | 1017.7 |
| 20260503201155 | 16 | 170 | 4.8 | 9.7 | 0.00 | 0.00 | 0.00 | 28 | 1017.9 |
| 20260503200650 | 16 | 214 | 0.0 | 14.5 | 0.00 | 0.00 | 0.00 | 27 | 1018.2 |
| 20260503200147 | 16 | 231 | 4.8 | 9.7 | 0.00 | 0.00 | 0.00 | 26 | 1018.3 |
| 20260503195644 | 16 | 292 | 6.4 | 9.7 | 0.00 | 0.00 | 0.00 | 29 | 1018.4 |
| 20260503195141 | 16 | 257 | 3.2 | 11.3 | 0.00 | 0.00 | 0.00 | 28 | 1018.5 |
| 20260503194638 | 15 | 251 | 3.2 | 14.5 | 0.00 | 0.00 | 0.00 | 28 | 1018.5 |
| 20260503194133 | 15 | 343 | 6.4 | 9.7 | 0.00 | 0.00 | 0.00 | 29 | 1018.5 |
| 20260503193631 | 16 | 291 | 8.0 | 8.0 | 0.00 | 0.00 | 0.00 | 31 | 1018.7 |
| 20260503193126 | 16 | 322 | 14.5 | 16.1 | 0.00 | 0.00 | 0.00 | 28 | 1018.6 |
| 20260503192622 | 16 | 182 | 4.8 | 14.5 | 0.00 | 0.00 | 0.00 | 30 | 1018.8 |
| 20260503192118 | 16 | 220 | 3.2 | 9.7 | 0.00 | 0.00 | 0.00 | 29 | 1018.8 |
| 20260503191615 | 16 | 217 | 3.2 | 9.7 | 0.00 | 0.00 | 0.00 | 26 | 1018.6 |
| 20260503191111 | 15 | 322 | 6.4 | 6.4 | 0.00 | 0.00 | 0.00 | 29 | 1018.7 |
| 20260503190609 | 13 | 241 | 8.0 | 19.3 | 0.00 | 0.00 | 0.00 | 29 | 1018.8 |
| 20260503190106 | 14 | 297 | 9.7 | 9.7 | 0.00 | 0.00 | 0.00 | 30 | 1018.9 |
| 20260503185602 | 15 | 306 | 8.0 | 11.3 | 0.00 | 0.00 | 0.00 | 30 | 1019.0 |
| 20260503185102 | 14 | 347 | 11.3 | 14.5 | 0.00 | 0.00 | 0.00 | 31 | 1019.0 |
| 20260503184558 | 15 | 357 | 4.8 | 12.9 | 0.00 | 0.00 | 0.00 | 30 | 1019.0 |
| 20260503184055 | 13 | 339 | 8.0 | 14.5 | 0.00 | 0.00 | 0.00 | 31 | 1019.6 |
| 20260503183551 | 15 | 313 | 8.0 | 12.9 | 0.00 | 0.00 | 0.00 | 31 | 1019.6 |
| 20260503183048 | 14 | 301 | 4.8 | 12.9 | 0.00 | 0.00 | 0.00 | 29 | 1019.5 |
| 20260503182547 | 15 | 195 | 8.0 | 8.0 | 0.00 | 0.00 | 0.00 | 28 | 1019.4 |
| 20260503182045 | 15 | 163 | 6.4 | 9.7 | 0.00 | 0.00 | 0.00 | 30 | 1019.5 |
| 20260503181541 | 13 | 316 | 9.7 | 17.7 | 0.00 | 0.00 | 0.00 | 30 | 1019.8 |
| 20260503181037 | 13 | 323 | 9.7 | 16.1 | 0.00 | 0.00 | 0.00 | 31 | 1019.6 |
| 20260503180535 | 15 | 204 | 4.8 | 16.1 | 0.00 | 0.00 | 0.00 | 34 | 1019.4 |
| 20260503180032 | 13 | 281 | 4.8 | 11.3 | 0.00 | 0.00 | 0.00 | 31 | 1019.6 |
| 20260503175529 | 13 | 277 | 6.4 | 14.5 | 0.00 | 0.00 | 0.00 | 31 | 1019.5 |
| 20260503175027 | 13 | 340 | 14.5 | 16.1 | 0.00 | 0.00 | 0.00 | 32 | 1019.5 |
| 20260503174524 | 13 | 327 | 11.3 | 12.9 | 0.00 | 0.00 | 0.00 | 30 | 1019.6 |
| 20260503174020 | 12 | 319 | 9.7 | 16.1 | 0.00 | 0.00 | 0.00 | 31 | 1019.9 |
| 20260503173515 | 12 | 334 | 14.5 | 19.3 | 0.00 | 0.00 | 0.00 | 31 | 1019.7 |
| 20260503173011 | 12 | 296 | 9.7 | 9.7 | 0.00 | 0.00 | 0.00 | 36 | 1019.6 |
| 20260503172509 | 13 | 314 | 14.5 | 16.1 | 0.00 | 0.00 | 0.00 | 31 | 1019.8 |
| 20260503172006 | 13 | 285 | 4.8 | 16.1 | 0.00 | 0.00 | 0.00 | 31 | 1019.6 |
| 20260503171502 | 12 | 345 | 14.5 | 16.1 | 0.00 | 0.00 | 0.00 | 31 | 1020.0 |
| 20260503171000 | 12 | 300 | 8.0 | 14.5 | 0.00 | 0.00 | 0.00 | 31 | 1020.0 |
| 20260503170456 | 12 | 354 | 6.4 | 9.7 | 0.00 | 0.00 | 0.00 | 33 | 1020.0 |
| 20260503150848 | 10 | 195 | 6.4 | 14.5 | 0.00 | 0.00 | 0.00 | 43 | 1021.1 |
| 20260503150344 | 10 | 276 | 9.7 | 16.1 | 0.00 | 0.00 | 0.00 | 41 | 1021.1 |
| 20260503140309 | 6 | 336 | 8.0 | 8.0 | 0.00 | 0.00 | 0.00 | 50 | 1021.2 |
| 20260503131238 | 6 | 285 | 3.2 | 8.0 | 0.00 | 0.00 | 0.00 | 50 | 1021.2 |
| 20260503130736 | 6 | 277 | 3.2 | 6.4 | 0.00 | 0.00 | 0.00 | 51 | 1021.0 |
| 20260503130233 | 6 | 278 | 0.0 | 6.4 | 0.00 | 0.00 | 0.00 | 52 | 1021.0 |
| 20260503120159 | 2 | 221 | 0.0 | 3.2 | 0.00 | 0.00 | 0.00 | 71 | 1020.7 |
| 20260503110627 | 0 | 57 | 0.0 | 3.2 | 0.00 | 0.00 | 0.00 | 81 | 1020.2 |
| 20260503110124 | 0 | 275 | 1.6 | 3.2 | 0.00 | 0.00 | 0.00 | 81 | 1020.2 |
| 20260503081440 | 5 | 342 | 6.4 | 8.0 | 0.00 | 0.00 | 0.00 | 59 | 1018.0 |
| 20260503080937 | 4 | 307 | 0.0 | 9.7 | 0.00 | 0.00 | 0.00 | 60 | 1018.1 |
| 20260503080433 | 5 | 6 | 3.2 | 8.0 | 0.00 | 0.00 | 0.00 | 61 | 1018.0 |
| 20260503072910 | 5 | 357 | 3.2 | 9.7 | 0.00 | 0.00 | 0.00 | 57 | 1017.9 |
| 20260503072407 | 5 | 351 | 9.7 | 14.5 | 0.00 | 0.00 | 0.00 | 56 | 1017.9 |
| 20260503071903 | 5 | 345 | 8.0 | 8.0 | 0.00 | 0.00 | 0.00 | 57 | 1017.7 |
| 20260503071401 | 5 | 340 | 4.8 | 6.4 | 0.00 | 0.00 | 0.00 | 56 | 1017.8 |
| 20260503070856 | 5 | 345 | 6.4 | 9.7 | 0.00 | 0.00 | 0.00 | 58 | 1017.6 |
| 20260503070355 | 5 | 354 | 6.4 | 8.0 | 0.00 | 0.00 | 0.00 | 58 | 1017.7 |
| 20260503060320 | 5 | 229 | 1.6 | 9.7 | 0.00 | 0.00 | 0.00 | 63 | 1017.7 |
| 20260503054808 | 5 | 261 | 1.6 | 3.2 | 0.00 | 0.00 | 0.00 | 71 | 1017.5 |
| 20260503054304 | 5 | 249 | 0.0 | 4.8 | 0.00 | 0.00 | 0.00 | 70 | 1017.6 |
| 20260503053801 | 5 | 340 | 3.2 | 3.2 | 0.00 | 0.00 | 0.00 | 72 | 1017.7 |
| 20260503053300 | 5 | 208 | 0.0 | 1.6 | 0.00 | 0.00 | 0.00 | 75 | 1017.7 |
| 20260503052755 | 5 | 302 | 0.0 | 1.6 | 0.00 | 0.00 | 0.00 | 74 | 1017.5 |